Regional Weather Roundup
Issued by NWS Cleveland, OH

Home | Current Version | Previous Version | Text Only | Print | Product List | Glossary Off
Versions: 1 2 3 4 5 6 7 8 9 10 11 12 13 14 15 16 17 18 19 20 21 22 23 24 25 26 27 28 29 30 31 32 33 34 35 36 37 38 39 40 41 42 43 44 45 46 47 48 49 50

000
ASUS41 KCLE 070710
RWRCLE
OHIO REGIONAL WEATHER ROUNDUP
NATIONAL WEATHER SERVICE WILMINGTON, OH
200 AM EST WED DEC 07 2016

NOTE: "FAIR" INDICATES FEW OR NO CLOUDS BELOW 12,000 FEET WITH NO
SIGNIFICANT WEATHER AND/OR OBSTRUCTIONS TO VISIBILITY.

OHZ001>008-015>018-024>027-034-035-043-044-070800-
   NORTHWEST OHIO

CITY           SKY/WX    TMP DP  RH WIND       PRES   REMARKS
DEFIANCE       FAIR      31  23  72 SW7       29.97R WCI  24
FINDLAY        FAIR      32  25  75 W17       29.95R WCI  21
TOLEDO EXPRESS MOCLDY    31  29  92 W18       29.93R WCI  19
TOLEDO EXEC    FAIR      33  29  85 W15       29.94R WCI  23
LIMA           FAIR      30  25  81 W16G26    29.98R WCI  19
$$

OHZ009>014-019>023-028>033-038-089-070800-
   NORTHEAST OHIO

CITY           SKY/WX    TMP DP  RH WIND       PRES   REMARKS
CLE-HOPKINS    MOCLDY    38  31  76 W16       29.93R
CLE-LAKEFRONT  CLOUDY    40  32  73 W23       29.90R
CUY CO. ARPT   NOT AVBL
LORAIN-ELYRIA  CLOUDY    35  29  78 W12       29.93R WCI  27
ASHTABULA      CLOUDY    40  36  86 W15G22    29.87R
AKRON-CANTON   CLOUDY    37  31  78 W15       29.91R HAZE
WOOSTER        MOCLDY    35  29  78 W13       29.93R WCI  26
MANSFIELD      MOCLDY    33  29  85 W9G20     29.94R WCI  25
YOUNGSTOWN     CLOUDY    37  34  89 W10G20    29.87R
$$

OHZ042-051>053-060>062-070>072-077>081-070800-
  SOUTHWEST OHIO

CITY           SKY/WX    TMP DP  RH WIND       PRES   REMARKS
CINC-COVINGTON CLOUDY    35  29  78 NW10      30.06R WCI  27
CINC-LUNKEN    MOCLDY    36  30  79 NW5       30.09R
HAMILTON       FAIR      30  25  81 CALM      30.07R
DAYTON         FAIR      30  26  85 W10       30.03R WCI  21
WRIGHT-PAT AFB PTCLDY    32  28  85 W8        30.03R WCI  25
DAYTON GENERAL FAIR      32  26  78 W6        30.03R WCI  26
WILMINGTON     MOCLDY    33  29  85 W13       30.03R WCI  24
$$

OHZ036-037-039>041-045>050-054>059-063>069-073>076-082>088-070800-
  CENTRAL AND SOUTHEAST OHIO

CITY           SKY/WX    TMP DP  RH WIND       PRES   REMARKS
COLUMBUS       FAIR      33  31  92 W9        29.99R WCI  25
OSU AIRPORT    FAIR      32  29  88 W8        29.99S WCI  25
BOLTON FIELD   FAIR      32  28  85 W6        30.01R WCI  26
RICKENBACK AFB   N/A     33  29  88 W6        30.01R WCI  27
NEWARK         MOCLDY    36  28  73 W13       29.98R
MARION         MOCLDY    32  27  81 W8        29.97R WCI  25
LANCASTER      MOCLDY    35  29  78 W9G18     30.00R WCI  28
ZANESVILLE     CLOUDY    38  34  85 W9        29.97R
NEW PHILLY     CLOUDY    38  34  85 W8        29.96R
$$



USA.gov is the U.S. government's official web portal to all federal, state and local government web resources and services.